Location: Newark
(13.6797°N, 8.5297°E)
Time: 14:14:13
(UTC+00:00)

Altair - Pass Details

Date: 26 January 2020
Orbit: 1502 x 1682 km, 47.2° (Epoch: 23 February)

Event Time Altitude Azimuth Distance (km) Brightness Sun altitude
Rises 05:09:08 0° 215° (SW) 4,745 9.9 -11.1°
Reaches altitude 10° 05:12:11 10° 213° (SSW) 3,785 9.4 -10.4°
Maximum altitude 05:21:50 74° 130° (SE) 1,685 7.9 -8.2°
Drops below altitude 10° 05:31:50 10° 47° (NE) 3,916 10.0 -5.9°
Sets 05:35:01 0° 45° (NE) 4,916 10.5 -5.1°
